• In Uzbekistan
  • List of Countries
  • For 7 days
  • Water Temperature
  • Satellite Maps
  • Weather Map
  • Weather Widgets
  • user-avatar
    Login

    Hourly Weather Pietkow

    Today, 24 March, Sunday

    Time Temperature Precipitation Wind Pressure Humidity
    00:00 +8°C° 0 mm 4 mps 749 mmHg 86%
    01:00 +7°C° 0 mm 3 mps 749 mmHg 88%
    02:00 +7°C° 0 mm 3 mps 749 mmHg 87%
    03:00 +5°C° 0 mm 3 mps 749 mmHg 86%
    04:00 +4°C° 0 mm 3 mps 749 mmHg 86%
    05:00 +4°C° 0 mm 3 mps 749 mmHg 84%
    06:00 +4°C° 0 mm 3 mps 749 mmHg 82%
    07:00 +4°C° 0 mm 3 mps 750 mmHg 78%
    08:00 +5°C° 0 mm 3 mps 750 mmHg 68%
    09:00 +7°C° 0 mm 3 mps 749 mmHg 57%
    10:00 +8°C° 0 mm 3 mps 749 mmHg 47%
    11:00 +9°C° 0 mm 3 mps 749 mmHg 42%
    12:00 +10°C° 0 mm 3 mps 748 mmHg 38%
    13:00 +11°C° 0 mm 3 mps 748 mmHg 34%
    14:00 +12°C° 0 mm 2 mps 747 mmHg 34%
    15:00 +12°C° 0 mm 2 mps 746 mmHg 34%
    16:00 +12°C° 0 mm 2 mps 746 mmHg 34%
    17:00 +10°C° 0 mm 2 mps 745 mmHg 38%
    18:00 +8°C° 0 mm 2 mps 745 mmHg 42%
    19:00 +8°C° 0 mm 1 mps 745 mmHg 46%
    20:00 +8°C° 0 mm 1 mps 744 mmHg 48%
    21:00 +7°C° 0 mm 1 mps 744 mmHg 50%
    22:00 +7°C° 0 mm 1 mps 744 mmHg 52%
    23:00 +7°C° 0 mm 1 mps 744 mmHg 53%

    Tomorrow, 25 March, Monday

    Time Temperature Precipitation Wind Pressure Humidity
    00:00 +6°C° 0 mm 1 mps 743 mmHg 53%
    01:00 +6°C° 0 mm 1 mps 743 mmHg 54%
    02:00 +6°C° 0 mm 1 mps 742 mmHg 56%
    03:00 +5°C° 0 mm 1 mps 741 mmHg 58%
    04:00 +5°C° 0 mm 1 mps 741 mmHg 60%
    05:00 +4°C° 0 mm 2 mps 741 mmHg 61%
    06:00 +5°C° 0 mm 2 mps 740 mmHg 62%
    07:00 +5°C° 0 mm 2 mps 740 mmHg 62%
    08:00 +5°C° 0 mm 3 mps 740 mmHg 57%
    09:00 +6°C° 0 mm 4 mps 739 mmHg 52%
    10:00 +8°C° 0 mm 5 mps 739 mmHg 47%
    11:00 +8°C° 0.2 mm 5 mps 739 mmHg 47%
    12:00 +7°C° 0.2 mm 5 mps 739 mmHg 47%
    13:00 +7°C° 0.2 mm 6 mps 738 mmHg 47%
    14:00 +7°C° 0.3 mm 6 mps 738 mmHg 52%
    15:00 +7°C° 0.3 mm 6 mps 739 mmHg 56%
    16:00 +5°C° 0.3 mm 6 mps 739 mmHg 60%
    17:00 +4°C° 0.1 mm 6 mps 739 mmHg 64%
    18:00 +3°C° 0.1 mm 5 mps 740 mmHg 68%
    19:00 +4°C° 0.1 mm 4 mps 741 mmHg 72%
    20:00 +3°C° 0 mm 4 mps 741 mmHg 74%
    21:00 +2°C° 0 mm 5 mps 742 mmHg 77%
    22:00 +2°C° 0 mm 5 mps 743 mmHg 79%
    23:00 +1°C° 0 mm 4 mps 743 mmHg 82%

    Day after tomorrow, 26 March, Tuesday

    Time Temperature Precipitation Wind Pressure Humidity
    00:00 +1°C° 0 mm 4 mps 744 mmHg 85%
    01:00 +1°C° 0 mm 3 mps 744 mmHg 88%
    02:00 0°C° 0 mm 3 mps 745 mmHg 90%
    03:00 0°C° 0 mm 3 mps 745 mmHg 93%
    04:00 0°C° 0 mm 3 mps 745 mmHg 95%
    05:00 0°C° 0 mm 3 mps 746 mmHg 93%
    06:00 -1°C° 0 mm 4 mps 746 mmHg 91%
    07:00 -1°C° 0 mm 4 mps 746 mmHg 89%
    08:00 +1°C° 0 mm 5 mps 746 mmHg 80%
    09:00 +2°C° 0 mm 6 mps 746 mmHg 72%
    10:00 +4°C° 0 mm 6 mps 746 mmHg 63%
    11:00 +5°C° 0 mm 7 mps 746 mmHg 60%
    12:00 +6°C° 0 mm 8 mps 745 mmHg 57%
    13:00 +6°C° 0 mm 9 mps 745 mmHg 54%
    14:00 +6°C° 0.1 mm 9 mps 745 mmHg 55%
    15:00 +5°C° 0.1 mm 10 mps 745 mmHg 57%
    16:00 +3°C° 0.1 mm 10 mps 745 mmHg 58%
    17:00 +3°C° 0.1 mm 9 mps 745 mmHg 61%
    18:00 +3°C° 0.1 mm 7 mps 746 mmHg 63%
    19:00 +3°C° 0.1 mm 6 mps 746 mmHg 66%
    20:00 +2°C° 0 mm 5 mps 747 mmHg 67%
    21:00 +1°C° 0 mm 4 mps 748 mmHg 69%
    22:00 +2°C° 0 mm 3 mps 748 mmHg 71%
    23:00 +2°C° 0 mm 2 mps 749 mmHg 70%

    27 March, Wednesday

    Time Temperature Precipitation Wind Pressure Humidity
    00:00 +1°C° 0 mm 2 mps 749 mmHg 70%
    01:00 +1°C° 0 mm 1 mps 749 mmHg 69%
    02:00 +1°C° 0 mm 1 mps 749 mmHg 68%
    03:00 +1°C° 0 mm 1 mps 750 mmHg 66%
    04:00 -1°C° 0 mm 0 mps 750 mmHg 65%
    05:00 +1°C° 0 mm 1 mps 750 mmHg 66%
    06:00 +2°C° 0 mm 1 mps 750 mmHg 67%
    07:00 +1°C° 0 mm 2 mps 751 mmHg 68%
    08:00 +3°C° 0 mm 2 mps 751 mmHg 62%
    09:00 +4°C° 0 mm 3 mps 751 mmHg 57%
    10:00 +7°C° 0 mm 3 mps 751 mmHg 51%
    11:00 +6°C° 0 mm 4 mps 751 mmHg 49%
    12:00 +7°C° 0 mm 4 mps 750 mmHg 47%
    13:00 +8°C° 0 mm 4 mps 750 mmHg 44%
    14:00 +8°C° 0.1 mm 4 mps 750 mmHg 50%
    15:00 +8°C° 0.1 mm 4 mps 750 mmHg 56%
    16:00 +7°C° 0.1 mm 4 mps 750 mmHg 62%
    17:00 +8°C° 0.2 mm 3 mps 750 mmHg 67%
    18:00 +7°C° 0.2 mm 3 mps 750 mmHg 72%
    19:00 +6°C° 0.2 mm 2 mps 751 mmHg 77%
    20:00 +6°C° 0 mm 2 mps 751 mmHg 80%
    21:00 +6°C° 0 mm 2 mps 751 mmHg 82%
    22:00 +5°C° 0 mm 2 mps 751 mmHg 84%
    23:00 +5°C° 0 mm 2 mps 751 mmHg 85%

    28 March, Thursday

    Time Temperature Precipitation Wind Pressure Humidity
    00:00 +5°C° 0 mm 2 mps 751 mmHg 85%
    01:00 +5°C° 0 mm 2 mps 751 mmHg 86%
    02:00 +5°C° 0 mm 2 mps 751 mmHg 88%
    03:00 +4°C° 0 mm 2 mps 751 mmHg 90%
    04:00 +4°C° 0 mm 2 mps 751 mmHg 92%
    05:00 +4°C° 0 mm 2 mps 752 mmHg 91%
    06:00 +5°C° 0 mm 2 mps 752 mmHg 90%
    07:00 +5°C° 0 mm 2 mps 752 mmHg 89%
    08:00 +7°C° 0.1 mm 1 mps 753 mmHg 87%
    09:00 +7°C° 0.1 mm 1 mps 753 mmHg 85%
    10:00 +8°C° 0.1 mm 1 mps 753 mmHg 83%
    11:00 +9°C° 0 mm 1 mps 753 mmHg 78%
    12:00 +10°C° 0 mm 1 mps 753 mmHg 73%
    13:00 +11°C° 0 mm 1 mps 753 mmHg 68%
    14:00 +11°C° 0 mm 1 mps 753 mmHg 67%
    15:00 +11°C° 0 mm 1 mps 753 mmHg 65%
    16:00 +10°C° 0 mm 0 mps 753 mmHg 64%
    17:00 +10°C° 0 mm 1 mps 753 mmHg 68%
    18:00 +9°C° 0 mm 1 mps 754 mmHg 73%
    19:00 +8°C° 0 mm 1 mps 754 mmHg 77%
    20:00 +8°C° 0 mm 1 mps 754 mmHg 80%
    21:00 +7°C° 0 mm 1 mps 754 mmHg 82%
    22:00 +7°C° 0 mm 1 mps 755 mmHg 84%
    23:00 +6°C° 0 mm 1 mps 755 mmHg 85%

    29 March, Friday

    Time Temperature Precipitation Wind Pressure Humidity
    00:00 +6°C° 0 mm 1 mps 755 mmHg 86%
    01:00 +5°C° 0 mm 0 mps 755 mmHg 87%
    02:00 +5°C° 0 mm 1 mps 755 mmHg 88%
    03:00 +5°C° 0 mm 1 mps 755 mmHg 88%
    04:00 +5°C° 0 mm 1 mps 755 mmHg 89%
    05:00 +6°C° 0 mm 1 mps 755 mmHg 88%
    06:00 +6°C° 0 mm 1 mps 755 mmHg 86%
    07:00 +7°C° 0 mm 1 mps 755 mmHg 85%
    08:00 +8°C° 0 mm 1 mps 755 mmHg 78%
    09:00 +9°C° 0 mm 2 mps 755 mmHg 72%
    10:00 +10°C° 0 mm 2 mps 755 mmHg 65%
    11:00 +12°C° 0 mm 2 mps 754 mmHg 60%
    12:00 +12°C° 0 mm 3 mps 754 mmHg 55%
    13:00 +13°C° 0 mm 3 mps 753 mmHg 50%
    14:00 +13°C° 0 mm 3 mps 753 mmHg 50%
    15:00 +13°C° 0 mm 3 mps 753 mmHg 49%
    16:00 +13°C° 0 mm 3 mps 752 mmHg 49%
    17:00 +12°C° 0 mm 3 mps 752 mmHg 54%
    18:00 +10°C° 0 mm 2 mps 752 mmHg 59%
    19:00 +9°C° 0 mm 2 mps 752 mmHg 65%
    20:00 +8°C° 0 mm 2 mps 752 mmHg 67%
    21:00 +8°C° 0 mm 2 mps 752 mmHg 69%
    22:00 +7°C° 0 mm 2 mps 752 mmHg 72%
    23:00 +7°C° 0 mm 2 mps 752 mmHg 74%
    Show more